When you browse on this site, cookies collect data to enhance your experience and personalize the content and advertising you see.
Visit our Privacy Policy to learn more. By continuing to use the site, you agree to this use of cookies and data.
  • In United Kingdom
  • List of Countries
  • For 7 days
  • Water Temperature
  • Satellite Maps
  • Weather Map
  • Weather Widgets
  • user-avatar
    Login

    Hourly Weather Yaremcha

    Today, 21 November, Wednesday

    Time Temperature Precipitation Wind Pressure Humidity
    00:00 -3°C° 0 mm 2 mps 705 mmHg 100%
    01:00 -4°C° 0 mm 2 mps 704 mmHg 100%
    02:00 -2°C° 0 mm 2 mps 704 mmHg 96%
    03:00 -2°C° 0 mm 1 mps 704 mmHg 100%
    04:00 -3°C° 0 mm 1 mps 704 mmHg 100%
    05:00 -3°C° 0 mm 1 mps 704 mmHg 100%
    06:00 -3°C° 0 mm 1 mps 704 mmHg 100%
    07:00 -3°C° 0 mm 1 mps 704 mmHg 100%
    08:00 -3°C° 0 mm 1 mps 704 mmHg 100%
    09:00 -2°C° 0 mm 1 mps 704 mmHg 100%
    10:00 -4°C° 0.1 mm 2 mps 705 mmHg 100%
    11:00 -4°C° 0.1 mm 2 mps 705 mmHg 100%
    12:00 -3°C° 0.1 mm 2 mps 705 mmHg 100%
    13:00 -3°C° 0.1 mm 2 mps 705 mmHg 100%
    14:00 +3°C° 0 mm 2 mps 705 mmHg 86%
    15:00 -1°C° 0 mm 3 mps 706 mmHg 100%
    16:00 -4°C° 0.2 mm 3 mps 705 mmHg 100%
    17:00 -3°C° 0.2 mm 2 mps 705 mmHg 100%
    18:00 -2°C° 0 mm 1 mps 705 mmHg 100%
    19:00 -2°C° 0 mm 1 mps 705 mmHg 100%
    20:00 -2°C° 0 mm 1 mps 706 mmHg 100%
    21:00 -3°C° 0 mm 1 mps 706 mmHg 100%
    22:00 -3°C° 0 mm 1 mps 706 mmHg 100%
    23:00 -3°C° 0 mm 1 mps 707 mmHg 100%

    Tomorrow, 22 November, Thursday

    Time Temperature Precipitation Wind Pressure Humidity
    00:00 -3°C° 0.1 mm 1 mps 707 mmHg 100%
    01:00 -3°C° 0 mm 1 mps 707 mmHg 100%
    02:00 -2°C° 0 mm 1 mps 707 mmHg 100%
    03:00 -2°C° 0 mm 1 mps 707 mmHg 100%
    04:00 -2°C° 0 mm 1 mps 707 mmHg 100%
    05:00 -2°C° 0 mm 1 mps 707 mmHg 100%
    06:00 -2°C° 0 mm 1 mps 707 mmHg 100%
    07:00 -1°C° 0 mm 1 mps 707 mmHg 100%
    08:00 -1°C° 0 mm 1 mps 707 mmHg 100%
    09:00 -2°C° 0 mm 0 mps 707 mmHg 100%
    10:00 0°C° 0 mm 1 mps 708 mmHg 100%
    11:00 0°C° 0 mm 1 mps 708 mmHg 100%
    12:00 +1°C° 0 mm 1 mps 708 mmHg 100%
    13:00 +1°C° 0 mm 1 mps 709 mmHg 100%
    14:00 +1°C° 0 mm 1 mps 709 mmHg 100%
    15:00 0°C° 0 mm 0 mps 709 mmHg 100%
    16:00 0°C° 0 mm 0 mps 709 mmHg 100%
    17:00 0°C° 0 mm 0 mps 709 mmHg 100%
    18:00 +1°C° 0 mm 1 mps 709 mmHg 100%
    19:00 +1°C° 0 mm 1 mps 709 mmHg 100%
    20:00 +1°C° 0 mm 1 mps 709 mmHg 100%
    21:00 +1°C° 0 mm 1 mps 709 mmHg 100%
    22:00 +1°C° 0 mm 1 mps 709 mmHg 100%
    23:00 +2°C° 0 mm 1 mps 710 mmHg 100%

    Day after tomorrow, 23 November, Friday

    Time Temperature Precipitation Wind Pressure Humidity
    00:00 +2°C° 0 mm 1 mps 710 mmHg 100%
    01:00 +2°C° 0 mm 1 mps 710 mmHg 100%
    02:00 +2°C° 0 mm 1 mps 710 mmHg 100%
    03:00 +1°C° 0 mm 0 mps 710 mmHg 100%
    04:00 +1°C° 0 mm 0 mps 710 mmHg 100%
    05:00 +1°C° 0 mm 0 mps 710 mmHg 100%
    06:00 +1°C° 0 mm 0 mps 710 mmHg 100%
    07:00 +1°C° 0 mm 0 mps 711 mmHg 100%
    08:00 +1°C° 0 mm 0 mps 711 mmHg 100%
    09:00 +1°C° 0 mm 0 mps 711 mmHg 100%
    10:00 +1°C° 0 mm 0 mps 711 mmHg 100%
    11:00 +2°C° 0 mm 0 mps 712 mmHg 100%
    12:00 +2°C° 0 mm 0 mps 712 mmHg 100%
    13:00 +3°C° 0 mm 1 mps 711 mmHg 100%
    14:00 +3°C° 0 mm 1 mps 711 mmHg 100%
    15:00 +2°C° 0 mm 1 mps 711 mmHg 100%
    16:00 +1°C° 0 mm 0 mps 711 mmHg 100%
    17:00 0°C° 0 mm 0 mps 711 mmHg 100%
    18:00 0°C° 0 mm 0 mps 711 mmHg 100%
    19:00 +1°C° 0 mm 1 mps 711 mmHg 100%
    20:00 +1°C° 0 mm 1 mps 711 mmHg 100%
    21:00 +2°C° 0 mm 1 mps 711 mmHg 97%
    22:00 +2°C° 0 mm 1 mps 710 mmHg 95%
    23:00 +1°C° 0 mm 2 mps 710 mmHg 93%

    24 November, Saturday

    Time Temperature Precipitation Wind Pressure Humidity
    00:00 +1°C° 0 mm 2 mps 710 mmHg 91%
    01:00 +1°C° 0 mm 2 mps 710 mmHg 90%
    02:00 +2°C° 0 mm 2 mps 709 mmHg 89%
    03:00 +2°C° 0 mm 2 mps 709 mmHg 88%
    04:00 +1°C° 0 mm 2 mps 709 mmHg 88%
    05:00 +1°C° 0 mm 2 mps 708 mmHg 89%
    06:00 0°C° 0 mm 3 mps 708 mmHg 90%
    07:00 0°C° 0 mm 3 mps 708 mmHg 91%
    08:00 0°C° 0 mm 4 mps 707 mmHg 90%
    09:00 0°C° 0 mm 4 mps 707 mmHg 89%
    10:00 +1°C° 0 mm 4 mps 707 mmHg 89%
    11:00 +3°C° 0 mm 3 mps 707 mmHg 90%
    12:00 +4°C° 0 mm 3 mps 706 mmHg 93%
    13:00 +4°C° 0 mm 3 mps 706 mmHg 94%
    14:00 +4°C° 0 mm 3 mps 706 mmHg 93%
    15:00 +4°C° 0 mm 4 mps 705 mmHg 88%
    16:00 +4°C° 0 mm 4 mps 705 mmHg 85%
    17:00 +4°C° 0 mm 4 mps 705 mmHg 83%
    18:00 +4°C° 0 mm 4 mps 705 mmHg 81%
    19:00 +4°C° 0 mm 4 mps 705 mmHg 81%
    20:00 +3°C° 0 mm 5 mps 704 mmHg 83%
    21:00 +4°C° 0 mm 3 mps 705 mmHg 83%
    22:00 +3°C° 0 mm 5 mps 704 mmHg 86%
    23:00 +3°C° 0 mm 5 mps 704 mmHg 85%

    25 November, Sunday

    Time Temperature Precipitation Wind Pressure Humidity
    00:00 +3°C° 0 mm 5 mps 704 mmHg 89%
    01:00 +3°C° 0 mm 5 mps 703 mmHg 89%
    02:00 +3°C° 0 mm 5 mps 703 mmHg 88%
    03:00 +3°C° 0 mm 5 mps 702 mmHg 88%
    04:00 +3°C° 0 mm 5 mps 702 mmHg 89%
    05:00 +3°C° 0 mm 6 mps 701 mmHg 94%
    06:00 +3°C° 0 mm 5 mps 701 mmHg 96%
    07:00 +3°C° 0 mm 5 mps 701 mmHg 97%
    08:00 +5°C° 0 mm 4 mps 701 mmHg 97%
    09:00 +4°C° 0 mm 4 mps 700 mmHg 99%
    10:00 +5°C° 0 mm 3 mps 700 mmHg 98%
    11:00 +6°C° 0 mm 2 mps 700 mmHg 99%
    12:00 +6°C° 0 mm 2 mps 701 mmHg 99%
    13:00 +5°C° 0 mm 3 mps 700 mmHg 100%
    14:00 +5°C° 0 mm 4 mps 700 mmHg 100%

    26 November, Monday

    Time Temperature Precipitation Wind Pressure Humidity
    Show more